Weather Roundup
Issued by NWS Corpus Christi, TX

Home | Current Version | Previous Version | Text Only | Print | Product List | Glossary Off
Versions: 1 2 3 4 5 6 7 8 9 10 11 12 13 14 15 16 17 18 19 20 21 22 23 24 25 26 27 28 29 30 31 32 33 34 35 36 37 38 39 40 41 42 43 44 45 46 47 48 49 50

000
ASUS44 KCRP 010010
HRRCRP

SOUTH TEXAS REGIONAL WEATHER ROUNDUP
NATIONAL WEATHER SERVICE CORPUS CHRISTI TX
700 PM CDT SUN APR 30 2017


TXZ229>244-010100-
...CORPUS CHRISTI AREA OBSERVATIONS...

CITY           SKY/WX    TMP DP  RH WIND       PRES   REMARKS
CORPUS CHRISTI SUNNY     82  36  19 N13       29.87F
NAS CORPUS CHR SUNNY     82  42  24 E6        29.88S
ROCKPORT       SUNNY     82  39  21 N6        29.88S
KINGSVILLE NAS SUNNY     84  34  16 N5        29.87S
ALICE          SUNNY     83  25  12 NW14      29.87S
ORANGE GROVE   SUNNY     83  29  14 N12       29.88S
FALFURRIAS     SUNNY     83  26  12 N6        29.87S
$$

...VICTORIA AREA OBSERVATIONS...

CITY           SKY/WX    TMP DP  RH WIND       PRES   REMARKS
VICTORIA       SUNNY     79  43  27 N6        29.89R
BEEVILLE       FAIR      81  34  18 NW12      29.88S
PLEASANTON     SUNNY     79  32  18 NW9       29.89S
SAN ANTONIO    SUNNY     77  34  21 NW9G18    29.88F
$$

...LAREDO AREA OBSERVATIONS...

CITY           SKY/WX    TMP DP  RH WIND       PRES   REMARKS
LAREDO         SUNNY     83  32  16 N13       29.87S
COTULLA        SUNNY     82  26  13 N12       29.89S
DEL RIO        SUNNY     80  34  19 SE10      29.84S
MCALLEN        SUNNY     88  35  15 N9        29.87S
HEBBRONVILLE   SUNNY     81  28  14 NE8       29.89R
$$

...OTHER TEXAS OBSERVATIONS...

CITY           SKY/WX    TMP DP  RH WIND       PRES   REMARKS
BROWNSVILLE    SUNNY     77  52  41 NE12      29.90R
HOUSTON        SUNNY     73  39  29 W10       29.90R
COL. STATION   SUNNY     73  37  27 W10       29.88F
AUSTIN         MOSUNNY   77  35  21 W6        29.88R
WACO           MOSUNNY   70  37  29 W12       29.86S
FORT WORTH     MOSUNNY   64  32  30 W30G41    29.83R
WICHITA FALLS  MOSUNNY   53  32  44 NW26G43   29.84R
LUBBOCK        MOSUNNY   64  25  22 NW14      29.89S
EL PASO        MOSUNNY   75   8   7 W10       29.95F
$$

...MARINE OBSERVATIONS...

STATION/POSITION TIME  SKY/WX   TEMP    WIND        PRES    VSBY  WAVE   SWELL
                                AIR SEA DIR/SP/G                  HT/PER HT/PER
                 (UTC)          (F)     (DEG/KT/KT) (MB)    (MI)  (FT/S) (FT/S)
PORT ARANSAS     0000            78 77   20/  9/ 10 1012.4F
BUOY 90 E PORT A 2250            70 77  340/ 10/ 14 1012.9          7/ 9   7/ 9
BUOY 45 SE BAFFI 2250            72      50/ 12/ 14 1011.8          7/ 9   7/ 9
BUOY 200 E PT IS 2250            75 79  360/ 19/ 25 1011.4         12/ 8   5/10
BUOY 15 E GALVES 2250            70 76  300/ 10/ 14 1012.4          4/10   3/10
$$



USA.gov is the U.S. government's official web portal to all federal, state and local government web resources and services.